Simultaneous Nadir Overpasses (SNOs) Predictions

Prediction of SNOs between GOES-16 and AQUA Satellite Orbit:

Table of predicted SNOs for the next 14.0 days since TLE Epoch: 2/22/2019
Index Date Time (GOES-16) GOES-16 Lat,Lon AQUA Lat,Lon Distance(km) Time Diff (sec)
1 02/24/2019 18:29:28 0.02, -75.21 0.46, -73.14 234.91 80
2 02/25/2019 06:50:43 -0.01, -75.21 0.67, -78.29 351.55 80
3 02/27/2019 06:38:33 -0.01, -75.22 0.01, -75.34 13.76 80
4 03/01/2019 06:23:42 0.00, -75.24 -0.60, -72.38 324.73 80
5 03/01/2019 18:45:07 -0.01, -75.25 -0.47, -77.58 264.43 80
6 03/03/2019 18:35:36 -0.00, -75.27 0.14, -74.62 74.61 80
7 03/05/2019 18:23:25 -0.00, -75.31 0.76, -71.66 414.31 80
8 03/06/2019 06:44:41 0.00, -75.31 0.33, -76.82 171.46 80
9 03/08/2019 06:29:51 -0.00, -75.35 -0.34, -73.87 169.03 80
10 03/08/2019 18:51:15 0.00, -75.36 -0.76, -79.06 419.70 80




NCC Satellite Simultaneous Nadir Overpasses (SNOs) Prediction Service
